AXM832 WMKK-VTSP

Flight info

Callsign AXM832
Flight time 1h 2m
Altitude 35000
Route BIKDU1F BIKDU Y501 RINBA Y502 DUBAX R325 URGAD URGAD1D
Aircraft A21N/M-SDE2E3FGHIRWXY/LB1

Departure

Time 2026-05-07 16:43
Airport Kuala Lumpur International Airport (WMKK)

Arrival

Time 2026-05-07 17:45
Airport Phuket International Airport (VTSP)
Time Latitude Longitude Altitude Speed Heading
2026-05-07 16:17 2.73769 101.68477 42 ft 0 kts 146°
2026-05-07 16:29 2.73778 101.68471 41 ft 2 kts 148°
2026-05-07 16:29 2.73788 101.68465 41 ft 2 kts 148°
2026-05-07 16:29 2.73797 101.68459 41 ft 2 kts 148°
2026-05-07 16:29 2.73807 101.68454 38 ft 2 kts 148°
2026-05-07 16:30 2.73817 101.68447 38 ft 2 kts 153°
2026-05-07 16:30 2.73828 101.68442 41 ft 3 kts 153°
2026-05-07 16:30 2.73848 101.68438 40 ft 3 kts 201°
2026-05-07 16:30 2.73862 101.68448 40 ft 1 kts 236°
2026-05-07 16:31 2.73869 101.68459 38 ft 4 kts 241°
2026-05-07 16:31 2.73865 101.68455 38 ft 2 kts 230°
2026-05-07 16:31 2.73857 101.68446 40 ft 0 kts 228°
2026-05-07 16:35 2.73853 101.68441 40 ft 7 kts 228°
2026-05-07 16:35 2.73827 101.68410 41 ft 14 kts 231°
2026-05-07 16:35 2.73759 101.68308 41 ft 17 kts 245°
2026-05-07 16:36 2.73698 101.68220 41 ft 13 kts 224°
2026-05-07 16:36 2.73645 101.68196 39 ft 11 kts 186°
2026-05-07 16:36 2.73564 101.68198 36 ft 3 kts 167°
2026-05-07 16:36 2.73521 101.68212 37 ft 4 kts 154°
2026-05-07 16:37 2.73483 101.68240 37 ft 11 kts 136°
2026-05-07 16:37 2.73435 101.68313 38 ft 16 kts 119°
2026-05-07 16:37 2.73360 101.68399 39 ft 16 kts 152°
2026-05-07 16:37 2.73228 101.68483 39 ft 28 kts 148°
2026-05-07 16:38 2.73048 101.68598 39 ft 30 kts 131°
2026-05-07 16:38 2.72905 101.68710 39 ft 26 kts 150°
2026-05-07 16:38 2.72748 101.68808 39 ft 27 kts 148°
2026-05-07 16:38 2.72588 101.68914 39 ft 28 kts 144°
2026-05-07 16:39 2.72429 101.69024 39 ft 28 kts 147°
2026-05-07 16:39 2.72264 101.69133 40 ft 29 kts 148°
2026-05-07 16:39 2.72100 101.69242 40 ft 29 kts 145°
2026-05-07 16:39 2.71938 101.69356 40 ft 28 kts 146°
2026-05-07 16:40 2.71818 101.69375 39 ft 10 kts 238°
2026-05-07 16:40 2.71779 101.69319 39 ft 11 kts 233°
2026-05-07 16:40 2.71737 101.69247 39 ft 11 kts 249°
2026-05-07 16:40 2.71742 101.69237 39 ft 0 kts 314°
2026-05-07 16:41 2.71783 101.69187 39 ft 18 kts 307°
2026-05-07 16:41 2.71866 101.69067 39 ft 18 kts 327°
2026-05-07 16:41 2.71905 101.69038 39 ft 0 kts 327°
2026-05-07 16:41 2.71925 101.69024 39 ft 23 kts 327°
2026-05-07 16:42 2.72259 101.68808 37 ft 90 kts 326°
2026-05-07 16:42 2.72919 101.68347 40 ft 142 kts 326°
2026-05-07 16:42 2.73853 101.67712 133 ft 173 kts 328°
2026-05-07 16:42 2.74855 101.67040 668 ft 177 kts 325°
2026-05-07 16:43 2.75878 101.66357 1248 ft 176 kts 326°
2026-05-07 16:43 2.76889 101.65651 1807 ft 180 kts 326°
2026-05-07 16:43 2.77955 101.64894 2156 ft 197 kts 326°
2026-05-07 16:43 2.79131 101.64068 2472 ft 216 kts 326°
2026-05-07 16:44 2.80416 101.63168 2788 ft 235 kts 326°
2026-05-07 16:44 2.81786 101.62213 3038 ft 249 kts 325°
2026-05-07 16:44 2.83223 101.61216 3006 ft 251 kts 325°
2026-05-07 16:44 2.84656 101.60228 3002 ft 250 kts 326°
2026-05-07 16:45 2.86087 101.59232 3002 ft 251 kts 326°
2026-05-07 16:45 2.87549 101.58291 2997 ft 249 kts 340°
2026-05-07 16:45 2.89224 101.57867 3070 ft 251 kts 352°
2026-05-07 16:45 2.90993 101.57635 3347 ft 266 kts 354°
2026-05-07 16:46 2.92854 101.57407 4009 ft 271 kts 353°
2026-05-07 16:46 2.94725 101.57146 4798 ft 273 kts 352°
2026-05-07 16:46 2.96617 101.56852 5521 ft 277 kts 351°
2026-05-07 16:46 2.98523 101.56536 6248 ft 280 kts 351°
2026-05-07 16:47 3.00453 101.56208 6918 ft 283 kts 351°
2026-05-07 16:47 3.02406 101.55874 7574 ft 286 kts 351°
2026-05-07 16:47 3.04384 101.55535 8219 ft 290 kts 351°
2026-05-07 16:47 3.06381 101.55193 8882 ft 293 kts 351°
2026-05-07 16:48 3.08404 101.54848 9544 ft 296 kts 351°
2026-05-07 16:48 3.10267 101.54530 10086 ft 301 kts 351°
2026-05-07 16:48 3.12393 101.54168 10303 ft 320 kts 351°
2026-05-07 16:48 3.14654 101.53784 10474 ft 339 kts 351°
2026-05-07 16:49 3.17023 101.53380 10799 ft 350 kts 351°
2026-05-07 16:49 3.19433 101.52968 11388 ft 352 kts 351°
2026-05-07 16:49 3.21860 101.52552 11977 ft 355 kts 351°
2026-05-07 16:49 3.24311 101.52133 12551 ft 359 kts 352°
2026-05-07 16:50 3.26779 101.51711 13139 ft 362 kts 352°
2026-05-07 16:50 3.29272 101.51285 13708 ft 365 kts 352°
2026-05-07 16:50 3.31525 101.50901 14160 ft 368 kts 352°
2026-05-07 16:50 3.33831 101.50507 14618 ft 370 kts 352°
2026-05-07 16:51 3.36379 101.50072 15113 ft 373 kts 352°
2026-05-07 16:51 3.38951 101.49633 15597 ft 376 kts 352°
2026-05-07 16:51 3.40665 101.49340 15916 ft 378 kts 352°
2026-05-07 16:51 3.43269 101.48896 16396 ft 381 kts 352°
2026-05-07 16:52 3.46745 101.48302 17017 ft 385 kts 352°
2026-05-07 16:52 3.48529 101.47997 17323 ft 387 kts 352°
2026-05-07 16:52 3.52060 101.47395 17918 ft 390 kts 352°
2026-05-07 16:52 3.53878 101.47085 18207 ft 393 kts 352°
2026-05-07 16:53 3.56579 101.46624 18582 ft 395 kts 352°
2026-05-07 16:53 3.59292 101.46161 18976 ft 397 kts 352°
2026-05-07 16:53 3.62027 101.45695 19352 ft 400 kts 352°
2026-05-07 16:53 3.64772 101.45226 19726 ft 402 kts 352°
2026-05-07 16:54 3.67538 101.44754 20097 ft 404 kts 352°
2026-05-07 16:54 3.70323 101.44278 20468 ft 407 kts 352°
2026-05-07 16:54 3.73120 101.43801 20842 ft 409 kts 352°
2026-05-07 16:54 3.75930 101.43321 21199 ft 412 kts 352°
2026-05-07 16:55 3.78763 101.42837 21567 ft 414 kts 352°
2026-05-07 16:55 3.81611 101.42351 21926 ft 416 kts 352°
2026-05-07 16:55 3.84442 101.41680 22271 ft 420 kts 345°
2026-05-07 16:55 3.87193 101.40644 22611 ft 425 kts 338°
2026-05-07 16:56 3.89893 101.39427 22949 ft 427 kts 338°
2026-05-07 16:56 3.92573 101.38230 23274 ft 429 kts 338°
2026-05-07 16:56 3.98061 101.35791 23887 ft 433 kts 338°
2026-05-07 16:57 4.00819 101.34566 24176 ft 435 kts 338°
2026-05-07 16:57 4.03591 101.33333 24452 ft 436 kts 338°
2026-05-07 16:57 4.06372 101.32096 24729 ft 438 kts 338°
2026-05-07 16:57 4.09164 101.30854 24995 ft 440 kts 338°
2026-05-07 16:58 4.11965 101.29607 25266 ft 442 kts 338°
2026-05-07 16:58 4.14782 101.28353 25533 ft 443 kts 338°
2026-05-07 16:58 4.17605 101.27097 25796 ft 445 kts 338°
2026-05-07 16:58 4.20435 101.25838 26063 ft 446 kts 338°
2026-05-07 16:59 4.23284 101.24570 26316 ft 448 kts 338°
2026-05-07 16:59 4.26136 101.23301 26562 ft 450 kts 338°
2026-05-07 16:59 4.28993 101.22029 26800 ft 451 kts 337°
2026-05-07 16:59 4.31871 101.20748 27046 ft 453 kts 337°
2026-05-07 17:00 4.34752 101.19466 27283 ft 454 kts 337°
2026-05-07 17:00 4.37644 101.18176 27487 ft 456 kts 337°
2026-05-07 17:00 4.40543 101.16879 27704 ft 458 kts 336°
2026-05-07 17:00 4.43455 101.15565 27922 ft 459 kts 338°
2026-05-07 17:01 4.46378 101.14272 28129 ft 460 kts 338°
2026-05-07 17:01 4.49313 101.12977 28334 ft 462 kts 338°
2026-05-07 17:01 4.52260 101.11673 28536 ft 463 kts 337°
2026-05-07 17:01 4.55210 101.10363 28743 ft 465 kts 337°
2026-05-07 17:02 4.58168 101.09047 28928 ft 466 kts 338°
2026-05-07 17:02 4.61148 101.07749 29131 ft 467 kts 338°
2026-05-07 17:02 4.64145 101.06463 29327 ft 469 kts 338°
2026-05-07 17:02 4.67147 101.05177 29508 ft 470 kts 338°
2026-05-07 17:03 4.70159 101.03885 29716 ft 471 kts 338°
2026-05-07 17:03 4.73181 101.02586 29890 ft 473 kts 338°
2026-05-07 17:03 4.76203 101.01283 30065 ft 474 kts 338°
2026-05-07 17:03 4.79244 100.99972 30227 ft 475 kts 338°
2026-05-07 17:04 4.82285 100.98661 30390 ft 477 kts 338°
2026-05-07 17:04 4.85332 100.97347 30565 ft 478 kts 338°
2026-05-07 17:04 4.88392 100.96027 30722 ft 479 kts 338°
2026-05-07 17:04 4.91457 100.94705 30874 ft 481 kts 338°
2026-05-07 17:05 4.94492 100.93395 31079 ft 481 kts 338°
2026-05-07 17:05 4.97566 100.92069 31286 ft 481 kts 338°
2026-05-07 17:05 5.00679 100.90725 31500 ft 481 kts 338°
2026-05-07 17:05 5.03752 100.89397 31734 ft 481 kts 338°
2026-05-07 17:06 5.06780 100.88089 31966 ft 480 kts 337°
2026-05-07 17:06 5.09845 100.86764 32186 ft 479 kts 337°
2026-05-07 17:06 5.12903 100.85442 32392 ft 479 kts 337°
2026-05-07 17:06 5.15959 100.84121 32613 ft 478 kts 337°
2026-05-07 17:07 5.19013 100.82801 32813 ft 477 kts 337°
2026-05-07 17:07 5.22061 100.81483 33021 ft 477 kts 337°
2026-05-07 17:07 5.25106 100.80167 33199 ft 477 kts 337°
2026-05-07 17:07 5.28147 100.78852 33379 ft 476 kts 337°
2026-05-07 17:08 5.31195 100.77534 33551 ft 476 kts 337°
2026-05-07 17:08 5.34237 100.76218 33752 ft 476 kts 337°
2026-05-07 17:08 5.37252 100.74860 33893 ft 476 kts 333°
2026-05-07 17:08 5.40154 100.73261 33895 ft 475 kts 330°
2026-05-07 17:09 5.45896 100.70002 33890 ft 474 kts 330°
2026-05-07 17:09 5.51643 100.66754 33891 ft 474 kts 330°
2026-05-07 17:10 5.57396 100.63502 33888 ft 474 kts 330°
2026-05-07 17:10 5.63150 100.60248 33886 ft 475 kts 330°
2026-05-07 17:11 5.68909 100.56990 33888 ft 475 kts 330°
2026-05-07 17:11 5.74668 100.53732 33887 ft 476 kts 330°
2026-05-07 17:12 5.80423 100.50456 33886 ft 476 kts 330°
2026-05-07 17:12 5.86100 100.47037 33885 ft 476 kts 329°
2026-05-07 17:13 5.91772 100.43603 33885 ft 476 kts 329°
2026-05-07 17:13 5.97456 100.40185 33888 ft 476 kts 329°
2026-05-07 17:14 6.03137 100.36775 33886 ft 476 kts 329°
2026-05-07 17:14 6.08823 100.33361 33886 ft 476 kts 329°
2026-05-07 17:15 6.14507 100.29947 33887 ft 476 kts 329°
2026-05-07 17:15 6.20187 100.26534 33885 ft 476 kts 329°
2026-05-07 17:16 6.25830 100.23143 33885 ft 476 kts 329°
2026-05-07 17:16 6.31539 100.19712 33885 ft 476 kts 329°
2026-05-07 17:17 6.37180 100.16321 33883 ft 475 kts 329°
2026-05-07 17:17 6.42690 100.12662 33881 ft 475 kts 321°
2026-05-07 17:18 6.47431 100.08046 33878 ft 475 kts 312°
2026-05-07 17:18 6.51873 100.03129 33880 ft 475 kts 313°
2026-05-07 17:19 6.56322 99.98225 33880 ft 474 kts 312°
2026-05-07 17:19 6.60760 99.93328 33880 ft 474 kts 312°
2026-05-07 17:20 6.65137 99.88494 33873 ft 473 kts 312°
2026-05-07 17:20 6.69564 99.83602 33871 ft 473 kts 312°
2026-05-07 17:21 6.71781 99.81152 33717 ft 474 kts 312°
2026-05-07 17:21 6.73997 99.78702 33460 ft 473 kts 312°
2026-05-07 17:21 6.76217 99.76249 33199 ft 473 kts 312°
2026-05-07 17:21 6.78433 99.73799 32972 ft 474 kts 312°
2026-05-07 17:22 6.80651 99.71346 32716 ft 475 kts 312°
2026-05-07 17:22 6.82847 99.68917 32475 ft 475 kts 312°
2026-05-07 17:22 6.85072 99.66457 32237 ft 476 kts 312°
2026-05-07 17:22 6.87332 99.63956 31993 ft 476 kts 312°
2026-05-07 17:23 6.89562 99.61488 31755 ft 477 kts 312°
2026-05-07 17:23 6.91767 99.59049 31523 ft 478 kts 312°
2026-05-07 17:23 6.94002 99.56575 31288 ft 478 kts 312°
2026-05-07 17:23 6.96242 99.54096 31056 ft 479 kts 312°
2026-05-07 17:24 6.98484 99.51613 30820 ft 480 kts 312°
2026-05-07 17:24 7.00732 99.49125 30463 ft 481 kts 313°
2026-05-07 17:24 7.03017 99.46652 29772 ft 484 kts 313°
2026-05-07 17:24 7.05336 99.44193 29095 ft 483 kts 314°
2026-05-07 17:25 7.07644 99.41753 28510 ft 478 kts 314°
2026-05-07 17:25 7.09954 99.39304 27887 ft 474 kts 314°
2026-05-07 17:25 7.12184 99.36933 27286 ft 471 kts 314°
2026-05-07 17:25 7.14456 99.34513 26651 ft 468 kts 314°
2026-05-07 17:26 7.16656 99.32167 26065 ft 465 kts 314°
2026-05-07 17:26 7.18873 99.29801 25440 ft 463 kts 314°
2026-05-07 17:26 7.21077 99.27449 24808 ft 462 kts 314°
2026-05-07 17:26 7.23273 99.25106 24203 ft 459 kts 314°
2026-05-07 17:27 7.25461 99.22770 23615 ft 457 kts 314°
2026-05-07 17:27 7.27639 99.20446 22972 ft 455 kts 314°
2026-05-07 17:27 7.29797 99.18142 22370 ft 450 kts 314°
2026-05-07 17:27 7.31938 99.15856 21764 ft 447 kts 314°
2026-05-07 17:28 7.34065 99.13584 21161 ft 443 kts 314°
2026-05-07 17:28 7.36169 99.11337 20596 ft 439 kts 314°
2026-05-07 17:28 7.38256 99.09108 20056 ft 435 kts 314°
2026-05-07 17:28 7.40321 99.06901 19505 ft 431 kts 314°
2026-05-07 17:29 7.42372 99.04709 18968 ft 428 kts 314°
2026-05-07 17:29 7.44405 99.02537 18450 ft 424 kts 314°
2026-05-07 17:29 7.46423 99.00380 17840 ft 422 kts 314°
2026-05-07 17:29 7.48419 98.98247 17076 ft 415 kts 314°
2026-05-07 17:30 7.50381 98.96149 16347 ft 408 kts 314°
2026-05-07 17:30 7.52314 98.94082 15634 ft 402 kts 314°
2026-05-07 17:30 7.54218 98.92046 14932 ft 397 kts 314°
2026-05-07 17:30 7.56099 98.90034 14244 ft 392 kts 314°
2026-05-07 17:31 7.57957 98.88047 13558 ft 387 kts 314°
2026-05-07 17:31 7.59796 98.86081 12801 ft 383 kts 314°
2026-05-07 17:31 7.61611 98.84140 12069 ft 379 kts 314°
2026-05-07 17:31 7.63363 98.82267 11370 ft 375 kts 314°
2026-05-07 17:32 7.65190 98.80314 10654 ft 371 kts 314°
2026-05-07 17:32 7.66945 98.78436 10096 ft 363 kts 314°
2026-05-07 17:32 7.68642 98.76620 9830 ft 347 kts 314°
2026-05-07 17:32 7.69715 98.75470 9792 ft 331 kts 314°
2026-05-07 17:33 7.71709 98.73334 9781 ft 302 kts 314°
2026-05-07 17:33 7.73147 98.71787 9787 ft 305 kts 313°
2026-05-07 17:33 7.74622 98.70194 9696 ft 306 kts 313°
2026-05-07 17:33 7.76048 98.68652 9571 ft 304 kts 313°
2026-05-07 17:34 7.77592 98.67212 9445 ft 302 kts 323°
2026-05-07 17:34 7.79334 98.66038 9301 ft 302 kts 328°
2026-05-07 17:34 7.81112 98.64881 8946 ft 305 kts 327°
2026-05-07 17:34 7.82890 98.63711 8557 ft 305 kts 327°
2026-05-07 17:35 7.84658 98.62544 8175 ft 304 kts 327°
2026-05-07 17:35 7.86409 98.61387 7794 ft 296 kts 327°
2026-05-07 17:35 7.88107 98.60264 7425 ft 288 kts 327°
2026-05-07 17:35 7.89756 98.59176 7098 ft 278 kts 327°
2026-05-07 17:36 7.91400 98.58187 6690 ft 273 kts 338°
2026-05-07 17:36 7.93183 98.57683 6460 ft 264 kts 354°
2026-05-07 17:36 7.95044 98.57523 6368 ft 271 kts 356°
2026-05-07 17:36 7.96909 98.57353 6175 ft 268 kts 355°
2026-05-07 17:37 7.98762 98.57175 5852 ft 267 kts 355°
2026-05-07 17:37 8.00611 98.56996 5521 ft 266 kts 355°
2026-05-07 17:37 8.02440 98.56821 5224 ft 263 kts 355°
2026-05-07 17:37 8.04244 98.56650 5032 ft 257 kts 355°
2026-05-07 17:38 8.06035 98.56480 4857 ft 256 kts 355°
2026-05-07 17:38 8.07755 98.56317 4692 ft 241 kts 355°
2026-05-07 17:38 8.09380 98.56164 4502 ft 228 kts 355°
2026-05-07 17:38 8.10929 98.56017 4417 ft 215 kts 355°
2026-05-07 17:39 8.12332 98.55781 4287 ft 199 kts 336°
2026-05-07 17:39 8.13317 98.54909 4105 ft 185 kts 296°
2026-05-07 17:39 8.13537 98.54117 3960 ft 175 kts 269°
2026-05-07 17:39 8.13429 98.52893 3780 ft 174 kts 261°
2026-05-07 17:40 8.13272 98.51739 3621 ft 159 kts 261°
2026-05-07 17:40 8.13087 98.50279 3399 ft 159 kts 262°
2026-05-07 17:40 8.12966 98.49172 3235 ft 159 kts 263°
2026-05-07 17:40 8.12891 98.48429 3100 ft 156 kts 263°
2026-05-07 17:41 8.12788 98.47344 3003 ft 155 kts 263°
2026-05-07 17:41 8.12651 98.45885 2995 ft 159 kts 264°
2026-05-07 17:41 8.12581 98.45131 2888 ft 160 kts 264°
2026-05-07 17:41 8.12477 98.44014 2535 ft 161 kts 264°
2026-05-07 17:42 8.12371 98.42877 2117 ft 161 kts 264°
2026-05-07 17:42 8.12269 98.41785 1924 ft 156 kts 264°
2026-05-07 17:42 8.12167 98.40695 1972 ft 158 kts 264°
2026-05-07 17:42 8.12064 98.39602 1971 ft 156 kts 264°
2026-05-07 17:43 8.11961 98.38509 1974 ft 157 kts 264°
2026-05-07 17:43 8.11864 98.37428 1873 ft 152 kts 265°
2026-05-07 17:43 8.11789 98.36370 1705 ft 152 kts 265°
2026-05-07 17:43 8.11721 98.35263 1063 ft 168 kts 263°
2026-05-07 17:44 8.11552 98.34059 481 ft 177 kts 260°
2026-05-07 17:44 8.11437 98.32860 138 ft 169 kts 264°
2026-05-07 17:44 8.11314 98.31792 61 ft 131 kts 265°
2026-05-07 17:44 8.11254 98.31071 44 ft 65 kts 269°
2026-05-07 17:45 8.11248 98.30858 39 ft 17 kts 263°
2026-05-07 17:45 8.11192 98.30776 37 ft 5 kts 181°
2026-05-07 17:45 8.11191 98.30776 37 ft 0 kts 182°
2026-05-07 17:45 8.11201 98.30777 37 ft 4 kts 192°
2026-05-07 17:46 8.11214 98.30779 37 ft 2 kts 228°
2026-05-07 17:46 8.11221 98.30759 36 ft 10 kts 289°
2026-05-07 17:46 8.11224 98.30643 33 ft 19 kts 262°
2026-05-07 17:46 8.11181 98.30520 31 ft 17 kts 194°
2026-05-07 17:47 8.11062 98.30499 32 ft 18 kts 195°
2026-05-07 17:47 8.10940 98.30457 31 ft 19 kts 196°
2026-05-07 17:47 8.10819 98.30431 30 ft 1 kts 188°
2026-05-07 17:47 8.10809 98.30430 30 ft 4 kts 182°
2026-05-07 17:48 8.10793 98.30461 31 ft 7 kts 85°
2026-05-07 17:48 8.10787 98.30477 31 ft 6 kts 111°
2026-05-07 17:48 8.10771 98.30533 30 ft 1 kts 103°